FW7822 Weather Reports


Display with metric or nautical units.
time (UTC)temp
F
wind
direction
speed
MPH
gust
MPH
rain 1hr
in
rain 24hr
in
rain mn
in
humidity
%
barometer
mb
20260502234946 62 50 1.0 2.0 0.00 0.00 0.00 28 1015.3
20260502234446 62 13 2.0 3.0 0.00 0.00 0.00 28 1015.4
20260502233947 62 349 2.0 4.0 0.00 0.00 0.00 27 1015.4
20260502233446 62 321 3.0 6.0 0.00 0.00 0.00 27 1015.5
20260502232946 62 74 2.0 4.0 0.00 0.00 0.00 28 1015.5
20260502232448 62 14 2.0 3.0 0.00 0.00 0.00 27 1015.6
20260502231947 62 306 3.0 5.0 0.00 0.00 0.00 27 1015.6
20260502231446 62 316 2.0 4.0 0.00 0.00 0.00 27 1015.6
20260502230946 62 264 2.0 7.0 0.00 0.00 0.00 27 1015.7
20260502230447 62 21 2.0 3.0 0.00 0.00 0.00 27 1015.7
20260502225946 62 301 4.0 5.0 0.00 0.00 0.00 26 1015.8
20260502225446 62 326 3.0 5.0 0.00 0.00 0.00 27 1015.8
20260502224947 62 187 2.0 3.0 0.00 0.00 0.00 27 1015.9
20260502224446 62 316 3.0 8.0 0.00 0.00 0.00 28 1015.9
20260502223946 62 348 2.0 5.0 0.00 0.00 0.00 27 1016.0
20260502223447 62 327 3.0 5.0 0.00 0.00 0.00 27 1016.1
20260502222946 62 293 2.0 4.0 0.00 0.00 0.00 26 1016.1
20260502222446 62 272 2.0 4.0 0.00 0.00 0.00 26 1016.1
20260502221946 62 292 4.0 9.0 0.00 0.00 0.00 26 1016.1
20260502221446 62 317 4.0 7.0 0.00 0.00 0.00 26 1016.2
20260502220946 62 341 2.0 5.0 0.00 0.00 0.00 27 1016.2
20260502220446 62 316 4.0 6.0 0.00 0.00 0.00 26 1016.2
20260502215947 62 15 2.0 4.0 0.00 0.00 0.00 26 1016.3
20260502215446 62 36 2.0 4.0 0.00 0.00 0.00 27 1016.3
20260502214947 62 328 4.0 8.0 0.00 0.00 0.00 27 1016.4
20260502214447 63 289 7.0 11.0 0.00 0.00 0.00 26 1016.5
20260502213947 63 338 2.0 4.0 0.00 0.00 0.00 27 1016.5
20260502213446 62 175 3.0 6.0 0.00 0.00 0.00 27 1016.5
20260502212946 63 313 3.0 7.0 0.00 0.00 0.00 26 1016.5
20260502212447 62 53 1.0 3.0 0.00 0.00 0.00 26 1016.6
20260502211947 62 346 3.0 6.0 0.00 0.00 0.00 27 1016.7
20260502211446 63 295 5.0 8.0 0.00 0.00 0.00 25 1016.7
20260502210946 62 225 3.0 5.0 0.00 0.00 0.00 26 1016.7
20260502210447 62 13 2.0 3.0 0.00 0.00 0.00 27 1016.8
20260502205946 62 20 2.0 6.0 0.00 0.00 0.00 28 1016.9
20260502205446 62 148 3.0 6.0 0.00 0.00 0.00 26 1016.8
20260502204948 62 2 2.0 4.0 0.00 0.00 0.00 28 1017.0
20260502204448 61 309 3.0 7.0 0.00 0.00 0.00 28 1017.1
20260502203946 61 282 6.0 10.0 0.00 0.00 0.00 26 1017.1
20260502203446 61 318 4.0 6.0 0.00 0.00 0.00 27 1017.1
20260502202947 62 282 4.0 8.0 0.00 0.00 0.00 27 1017.2
20260502202447 62 303 4.0 8.0 0.00 0.00 0.00 27 1017.3
20260502201946 62 152 3.0 6.0 0.00 0.00 0.00 28 1017.3
20260502201446 62 303 3.0 6.0 0.00 0.00 0.00 27 1017.4
20260502200946 62 26 2.0 3.0 0.00 0.00 0.00 26 1017.5
20260502200446 61 222 4.0 7.0 0.00 0.00 0.00 26 1017.6
20260502195946 61 336 4.0 7.0 0.00 0.00 0.00 27 1017.7
20260502195446 61 7 3.0 5.0 0.00 0.00 0.00 28 1017.9
20260502194946 61 159 3.0 6.0 0.00 0.00 0.00 27 1017.9
20260502194450 61 160 2.0 4.0 0.00 0.00 0.00 26 1017.9
20260502193947 60 77 2.0 4.0 0.00 0.00 0.00 29 1018.0
20260502193447 60 322 3.0 6.0 0.00 0.00 0.00 29 1018.1
20260502192946 60 215 3.0 8.0 0.00 0.00 0.00 28 1018.1
20260502192447 60 146 3.0 5.0 0.00 0.00 0.00 28 1018.1
20260502191947 60 229 4.0 7.0 0.00 0.00 0.00 29 1018.2
20260502191446 60 81 3.0 4.0 0.00 0.00 0.00 26 1018.3
20260502190946 60 318 4.0 6.0 0.00 0.00 0.00 27 1018.4
20260502190447 60 298 5.0 8.0 0.00 0.00 0.00 28 1018.5
20260502185946 61 313 4.0 9.0 0.00 0.00 0.00 28 1018.5
20260502185446 60 225 2.0 4.0 0.00 0.00 0.00 29 1018.5
20260502184947 60 151 2.0 4.0 0.00 0.00 0.00 25 1018.5
20260502184447 59 349 3.0 4.0 0.00 0.00 0.00 28 1018.7
20260502183946 59 303 3.0 6.0 0.00 0.00 0.00 28 1018.7
20260502183446 59 72 2.0 3.0 0.00 0.00 0.00 27 1018.7
20260502182946 59 298 4.0 6.0 0.00 0.00 0.00 28 1019.0
20260502182446 59 230 4.0 6.0 0.00 0.00 0.00 28 1019.0
20260502181946 59 302 4.0 6.0 0.00 0.00 0.00 28 1019.0
20260502181446 59 294 3.0 6.0 0.00 0.00 0.00 28 1019.1
20260502180948 58 29 3.0 5.0 0.00 0.00 0.00 28 1019.1
20260502180447 58 111 3.0 4.0 0.00 0.00 0.00 27 1019.1
20260502170447 57 63 2.0 4.0 0.00 0.00 0.00 29 1019.8
20260502163946 56 335 3.0 4.0 0.00 0.00 0.00 29 1020.0
20260502163448 56 291 4.0 7.0 0.00 0.00 0.00 31 1020.1
20260502162947 56 282 3.0 6.0 0.00 0.00 0.00 31 1020.1
20260502162446 56 351 3.0 4.0 0.00 0.00 0.00 32 1020.1
20260502161946 56 22 2.0 4.0 0.00 0.00 0.00 33 1020.1
20260502161447 55 315 2.0 4.0 0.00 0.00 0.00 30 1020.3
20260502160946 56 318 4.0 9.0 0.00 0.00 0.00 32 1020.3
20260502160446 56 323 2.0 4.0 0.00 0.00 0.00 33 1020.3
20260502151947 54 10 3.0 4.0 0.00 0.00 0.00 35 1020.5
20260502151446 54 298 4.0 6.0 0.00 0.00 0.00 34 1020.6
20260502150946 53 240 2.0 4.0 0.00 0.00 0.00 37 1020.5
20260502150446 53 309 4.0 6.0 0.00 0.00 0.00 37 1020.5
20260502130446 42 281 1.0 2.0 0.00 0.00 0.00 68 1020.8
20260502123451 38 318 1.0 2.0 0.00 0.00 0.00 71 1020.8
20260502122947 38 18 0.0 1.0 0.00 0.00 0.00 72 1020.8
20260502122446 37 19 0.0 1.0 0.00 0.00 0.00 74 1020.7
20260502121947 37 104 1.0 1.0 0.00 0.00 0.00 71 1020.7
20260502121447 36 103 0.0 0.0 0.00 0.00 0.00 73 1020.7
20260502120946 35 0 0.0 0.0 0.00 0.00 0.00 75 1020.7
20260502120447 33 85 0.0 1.0 0.00 0.00 0.00 79 1020.6
20260502115446 31 39 0.0 1.0 0.00 0.00 0.00 83 1020.5
20260502114946 30 54 0.0 0.0 0.00 0.00 0.00 86 1020.4
20260502114447 30 345 0.0 0.0 0.00 0.00 0.00 87 1020.3
20260502113946 30 132 0.0 1.0 0.00 0.00 0.00 87 1020.3
20260502113446 30 0 0.0 0.0 0.00 0.00 0.00 86 1020.2
20260502112946 30 92 0.0 1.0 0.00 0.00 0.00 87 1020.2
20260502112447 30 104 0.0 1.0 0.00 0.00 0.00 88 1020.2
20260502111947 29 0 0.0 0.0 0.00 0.00 0.00 87 1020.2
20260502111446 29 65 0.0 1.0 0.00 0.00 0.00 87 1020.2
20260502110946 30 0 0.0 0.0 0.00 0.00 0.00 87 1020.1
20260502110446 30 0 0.0 0.0 0.00 0.00 0.00 87 1020.1
20260502105946 30 63 0.0 0.0 0.00 0.00 0.00 88 1020.1
20260502105448 30 91 0.0 0.0 0.00 0.00 0.00 87 1020.1
20260502104948 29 172 0.0 1.0 0.00 0.00 0.00 87 1020.0
20260502104447 30 132 0.0 1.0 0.00 0.00 0.00 86 1020.0
20260502103946 30 98 0.0 1.0 0.00 0.00 0.00 86 1019.9
20260502103446 30 98 0.0 1.0 0.00 0.00 0.00 85 1019.9
20260502102946 30 164 0.0 1.0 0.00 0.00 0.00 85 1019.9
20260502102446 30 117 0.0 1.0 0.00 0.00 0.00 85 1019.9
20260502101947 30 0 0.0 0.0 0.00 0.00 0.00 86 1019.9
20260502101446 30 52 0.0 0.0 0.00 0.00 0.00 85 1019.9
20260502100946 31 0 0.0 0.0 0.00 0.00 0.00 85 1019.9
20260502100447 31 0 0.0 0.0 0.00 0.00 0.00 84 1019.9
20260502091446 33 1 0.0 1.0 0.00 0.00 0.00 80 1019.8
20260502090947 33 83 0.0 1.0 0.00 0.00 0.00 79 1019.8
20260502090448 33 0 0.0 0.0 0.00 0.00 0.00 77 1019.9
20260502071446 35 61 0.0 1.0 0.00 0.00 0.00 76 1019.8
20260502070946 36 90 0.0 1.0 0.00 0.00 0.00 74 1019.8
20260502070447 36 0 0.0 0.0 0.00 0.00 0.00 72 1019.8
20260502065947 37 61 0.0 1.0 0.00 0.00 0.00 71 1019.8
20260502065446 37 26 1.0 1.0 0.00 0.00 0.00 68 1019.8
20260502064947 37 32 0.0 1.0 0.00 0.00 0.00 66 1019.8
20260502064447 37 317 0.0 0.0 0.00 0.00 0.00 66 1019.9
20260502063947 37 0 0.0 0.0 0.00 0.00 0.00 67 1019.8
20260502063446 37 0 0.0 0.0 0.00 0.00 0.00 67 1019.8
20260502062946 37 0 0.0 0.0 0.00 0.00 0.00 65 1019.8
20260502062447 38 0 0.0 0.0 0.00 0.00 0.00 65 1019.9
20260502061946 38 0 0.0 0.0 0.00 0.00 0.00 65 1019.9
20260502061447 38 0 0.0 0.0 0.00 0.00 0.00 66 1019.9
20260502060946 38 325 0.0 1.0 0.00 0.00 0.00 67 1019.9
20260502060446 38 319 0.0 1.0 0.00 0.00 0.00 66 1019.9
20260502055946 38 0 0.0 0.0 0.00 0.00 0.00 67 1019.8
20260502055446 38 324 0.0 1.0 0.00 0.00 0.00 67 1019.8
20260502054946 38 112 0.0 1.0 0.00 0.00 0.00 66 1019.8
20260502054446 39 339 0.0 1.0 0.00 0.00 0.00 63 1019.7
20260502053947 39 339 1.0 1.0 0.00 0.00 0.00 64 1019.7
20260502053447 39 351 0.0 1.0 0.00 0.00 0.00 63 1019.7
20260502052946 39 330 0.0 1.0 0.00 0.00 0.00 63 1019.7
20260502052446 39 0 0.0 0.0 0.00 0.00 0.00 63 1019.6
20260502051946 40 341 0.0 1.0 0.00 0.00 0.00 63 1019.7
20260502051446 40 316 0.0 1.0 0.00 0.00 0.00 60 1019.6
20260502050947 40 332 2.0 2.0 0.00 0.00 0.00 60 1019.6
20260502050446 40 330 2.0 2.0 0.00 0.00 0.00 60 1019.6
20260502045951 41 356 0.0 1.0 0.00 0.00 0.00 59 1019.6
20260502045446 41 2 1.0 2.0 0.00 0.00 0.00 58 1019.5
20260502044947 41 2 2.0 2.0 0.00 0.00 0.00 58 1019.5
20260502044446 41 8 1.0 2.0 0.00 0.00 0.00 59 1019.4
20260502043946 41 354 0.0 2.0 0.00 0.00 0.00 58 1019.4
20260502043446 41 11 2.0 2.0 0.00 0.00 0.00 58 1019.5
20260502042946 41 350 1.0 2.0 0.00 0.00 0.00 58 1019.4
20260502042446 41 2 2.0 2.0 0.00 0.00 0.00 58 1019.4
20260502041946 41 29 0.0 1.0 0.00 0.00 0.00 61 1019.3
20260502041446 41 315 0.0 1.0 0.00 0.00 0.00 62 1019.3
20260502040947 41 0 0.0 0.0 0.00 0.00 0.00 61 1019.3
20260502040446 42 12 0.0 0.0 0.00 0.00 0.00 59 1019.3
20260502035946 42 43 0.0 1.0 0.00 0.00 0.00 57 1019.2
20260502035446 42 329 0.0 1.0 0.00 0.00 0.00 57 1019.2
20260502034947 43 312 0.0 1.0 0.00 0.00 0.00 56 1019.2
20260502034446 43 318 1.0 1.0 0.00 0.00 0.00 56 1019.2
20260502033946 43 334 0.0 1.0 0.00 0.00 0.00 56 1019.2
20260502033447 43 333 0.0 1.0 0.00 0.00 0.00 54 1019.1
20260502032949 43 270 0.0 1.0 0.00 0.00 0.00 53 1019.1
20260502032446 44 327 0.0 1.0 0.00 0.00 0.00 54 1019.0
20260502031946 44 296 0.0 2.0 0.00 0.00 0.00 54 1019.0
20260502031446 44 339 2.0 2.0 0.00 0.00 0.00 51 1018.8
20260502030946 44 335 1.0 2.0 0.00 0.00 0.00 51 1018.8
20260502030446 45 357 0.0 1.0 0.00 0.00 0.00 51 1018.8
20260502025946 45 355 2.0 2.0 0.00 0.00 0.00 50 1018.7
20260502025446 45 355 2.0 2.0 0.00 0.00 0.00 49 1018.6
20260502024947 45 354 2.0 2.0 0.00 0.00 0.00 49 1018.6
20260502024446 45 358 1.0 2.0 0.00 0.00 0.00 50 1018.6
20260502023946 45 5 1.0 2.0 0.00 0.00 0.00 50 1018.5
20260502023446 46 7 1.0 2.0 0.00 0.00 0.00 50 1018.4
20260502022946 46 6 1.0 2.0 0.00 0.00 0.00 49 1018.3
20260502022447 46 357 2.0 3.0 0.00 0.00 0.00 48 1018.3
20260502021946 47 356 2.0 2.0 0.00 0.00 0.00 47 1018.2
20260502021446 47 5 2.0 2.0 0.00 0.00 0.00 45 1018.2
20260502020946 47 357 3.0 4.0 0.00 0.00 0.00 45 1018.1
20260502020446 48 358 2.0 3.0 0.00 0.00 0.00 45 1018.1
20260502015946 48 8 2.0 3.0 0.00 0.00 0.00 43 1018.0
20260502015447 48 7 3.0 4.0 0.00 0.00 0.00 43 1017.9
20260502014947 49 6 3.0 3.0 0.00 0.00 0.00 43 1017.9
20260502014446 49 11 2.0 3.0 0.00 0.00 0.00 43 1017.8
20260502013947 49 13 3.0 4.0 0.00 0.00 0.00 42 1017.7
20260502013446 49 8 3.0 4.0 0.00 0.00 0.00 43 1017.6
20260502012947 49 8 3.0 5.0 0.00 0.00 0.00 42 1017.5
20260502012447 50 9 3.0 3.0 0.00 0.00 0.00 42 1017.5
20260502011946 50 9 3.0 5.0 0.00 0.00 0.00 41 1017.4
20260502011446 51 14 4.0 5.0 0.00 0.00 0.00 41 1017.4
20260502010946 51 8 4.0 5.0 0.00 0.00 0.00 40 1017.3
20260502010446 51 359 4.0 4.0 0.00 0.00 0.00 39 1017.2
20260502005947 52 18 3.0 5.0 0.00 0.00 0.00 40 1017.2
20260502005446 52 1 4.0 5.0 0.00 0.00 0.00 39 1017.1
20260502004946 52 22 4.0 7.0 0.00 0.00 0.00 38 1017.1
20260502004446 52 0 4.0 6.0 0.00 0.00 0.00 39 1017.0
20260502003946 53 5 3.0 4.0 0.00 0.00 0.00 39 1017.0
20260502003446 53 10 3.0 4.0 0.00 0.00 0.00 39 1016.9
20260502002946 53 353 3.0 6.0 0.00 0.00 0.00 38 1016.9
20260502002446 53 358 3.0 5.0 0.00 0.00 0.00 38 1016.9
20260502001946 53 355 3.0 5.0 0.00 0.00 0.00 41 1016.9
20260502001446 53 27 2.0 4.0 0.00 0.00 0.00 40 1016.8
20260502000946 53 6 2.0 3.0 0.00 0.00 0.00 40 1016.9
20260502000447 53 11 2.0 2.0 0.00 0.00 0.00 39 1016.9
20260501235946 53 10 3.0 3.0 0.00 0.00 0.00 39 1016.8
20260501235447 53 7 3.0 4.0 0.00 0.00 0.00 38 1016.7